User: anonymous   Login
Location: Newark
(33.6439°N, 114.9881°W)
Time: 05:47:19
(UTC+00:00)
Language:

SR - Orbit

View from above orbital plane
View from above orbital plane
View from above satellite
View from above satellite

Ground track
Ground track

The orbit data is extracted from the following two-line orbital elements,

1    46U 60007B   19233.92489391 -.00000048 +00000-0 +13802-4 0  9997
2    46 066.6907 138.5513 0211075 353.1180 006.7037 14.49239248095563
Epoch (UTC): 21 August 2019 22:11:50
Eccentricity: 0.0211075
inclination: 66.6907°
perigee height: 578 km
apogee height: 878 km
right ascension of ascending node: 138.5513°
argument of perigee: 353.1180°
revolutions per day: 14.49239248
mean anomaly at epoch: 6.7037°
orbit number at epoch: 9556

The dashed part of the orbit path shows where the satellite is in the earth's shadow,  

DLR